KC0OOO-WX Weather Reports


time (UTC)temp
C
wind
direction
speed
KPH
gust
KPH
rain 1hr
cm
rain 24hr
cm
rain mn
cm
humidity
%
barometer
mb
20260906225624 30 349 4.8 22.5 0.00 0.00 0.00 21 1024.4
20260906224554 30 185 4.8 22.5 0.00 0.00 0.00 21 1024.7
20260906223554 30 292 8.0 22.5 0.00 0.00 0.00 20 1024.7
20260906222554 30 334 3.2 22.5 0.00 0.00 0.00 20 1025.1
20260906221554 30 185 1.6 22.5 0.00 0.00 0.00 21 1025.1
20260906220554 31 300 4.8 22.5 0.00 0.00 0.00 21 1025.1
20260906215554 30 201 1.6 22.5 0.00 0.00 0.00 22 1025.1
20260906214524 30 293 8.0 22.5 0.00 0.00 0.00 22 1025.4
20260906213524 30 271 9.7 22.5 0.00 0.00 0.00 21 1025.4
20260906212454 31 294 12.9 19.3 0.00 0.00 0.00 20 1025.7
20260906211454 31 147 3.2 19.3 0.00 0.00 0.00 21 1025.7
20260906210424 30 130 0.0 19.3 0.00 0.00 0.00 22 1025.7
20260906205354 30 288 9.7 19.3 0.00 0.00 0.00 21 1025.7
20260906204354 31 290 8.0 19.3 0.00 0.00 0.00 20 1026.1
20260906203354 31 175 4.8 16.1 0.00 0.00 0.00 21 1026.1
20260906202354 30 243 1.6 16.1 0.00 0.00 0.00 21 1026.4
20260906201354 30 203 3.2 16.1 0.00 0.00 0.00 22 1026.4
20260906200354 30 277 4.8 16.1 0.00 0.00 0.00 22 1026.4
20260906195324 30 257 1.6 16.1 0.00 0.00 0.00 21 1026.4
20260906194254 31 159 1.6 16.1 0.00 0.00 0.00 21 1027.1
20260906193224 30 186 1.6 16.1 0.00 0.00 0.00 21 1027.1
20260906192224 30 102 1.6 16.1 0.00 0.00 0.00 22 1027.1
20260906191224 29 231 4.8 16.1 0.00 0.00 0.00 22 1027.1
20260906190224 28 201 1.6 16.1 0.00 0.00 0.00 23 1027.1
20260906185224 27 142 3.2 12.9 0.00 0.00 0.00 24 1027.4
20260906184224 27 185 1.6 12.9 0.00 0.00 0.00 26 1027.5
20260906183224 26 105 3.2 12.9 0.00 0.00 0.00 25 1027.8
20260906182223 27 256 1.6 12.9 0.00 0.00 0.00 25 1028.1
20260906181223 26 128 3.2 12.9 0.00 0.00 0.00 25 1028.1
20260906180224 26 261 0.0 12.9 0.00 0.00 0.00 25 1028.1
20260906175223 26 294 3.2 8.0 0.00 0.00 0.00 25 1028.1
20260906174223 25 198 1.6 6.4 0.00 0.00 0.00 26 1028.4
20260906173223 25 287 3.2 6.4 0.00 0.00 0.00 24 1028.4
20260906172223 24 200 1.6 6.4 0.00 0.00 0.00 26 1028.4
20260906171223 23 184 0.0 6.4 0.00 0.00 0.00 27 1028.5
20260906170223 23 180 1.6 6.4 0.00 0.00 0.00 30 1028.8
20260906165223 22 167 1.6 6.4 0.00 0.00 0.00 31 1028.7
20260906164223 21 65 3.2 6.4 0.00 0.00 0.00 33 1028.4
20260906163223 20 213 1.6 6.4 0.00 0.00 0.00 36 1028.5
20260906162223 20 254 0.0 6.4 0.00 0.00 0.00 37 1028.8
20260906161153 18 177 1.6 6.4 0.00 0.00 0.00 38 1028.8
20260906160153 18 26 0.0 6.4 0.00 0.00 0.00 41 1028.8
20260906155153 17 158 0.0 6.4 0.00 0.00 0.00 44 1029.1
20260906154153 16 134 3.2 6.4 0.00 0.00 0.00 46 1029.1
20260906153153 16 167 1.6 4.8 0.00 0.00 0.00 48 1029.1
20260906152153 15 95 1.6 4.8 0.00 0.00 0.00 52 1029.1
20260906151153 13 60 1.6 4.8 0.00 0.00 0.00 55 1029.1
20260906150153 12 67 1.6 4.8 0.00 0.00 0.00 58 1029.1
20260906145123 11 57 0.0 3.2 0.00 0.00 0.00 62 1028.8
20260906144123 10 65 0.0 3.2 0.00 0.00 0.00 63 1028.8
20260906143123 9 74 0.0 3.2 0.00 0.00 0.00 68 1028.8
20260906142122 8 318 0.0 3.2 0.00 0.00 0.00 69 1028.8
20260906141122 8 294 0.0 3.2 0.00 0.00 0.00 72 1028.4
20260906140122 7 292 0.0 3.2 0.00 0.00 0.00 73 1028.4
20260906135122 7 292 0.0 3.2 0.00 0.00 0.00 73 1028.1
20260906134052 7 292 0.0 3.2 0.00 0.00 0.00 73 1028.1
20260906133052 7 292 0.0 3.2 0.00 0.00 0.00 72 1028.1
20260906132052 7 292 0.0 3.2 0.00 0.00 0.00 72 1028.1
20260906131052 7 292 0.0 3.2 0.00 0.00 0.00 72 1027.8
20260906130052 7 292 0.0 3.2 0.00 0.00 0.00 72 1027.8
20260906125052 7 292 0.0 3.2 0.00 0.00 0.00 71 1027.8
20260906124052 7 292 0.0 3.2 0.00 0.00 0.00 70 1027.8
20260906123052 7 292 0.0 3.2 0.00 0.00 0.00 69 1027.8
20260906122022 7 292 0.0 3.2 0.00 0.00 0.00 69 1027.8
20260906121022 7 292 0.0 3.2 0.00 0.00 0.00 67 1027.8
20260906120022 8 292 0.0 3.2 0.00 0.00 0.00 67 1027.8
20260906115022 8 292 0.0 3.2 0.00 0.00 0.00 67 1027.8
20260906114022 8 292 0.0 3.2 0.00 0.00 0.00 66 1027.4
20260906113022 8 292 0.0 3.2 0.00 0.00 0.00 66 1027.4
20260906112022 8 292 0.0 3.2 0.00 0.00 0.00 66 1027.4
20260906111022 8 314 0.0 3.2 0.00 0.00 0.00 65 1027.4
20260906110022 8 321 0.0 3.2 0.00 0.00 0.00 64 1027.4
20260906105022 9 321 0.0 3.2 0.00 0.00 0.00 63 1027.8
20260906104021 9 321 0.0 3.2 0.00 0.00 0.00 63 1027.8
20260906103021 9 321 0.0 3.2 0.00 0.00 0.00 63 1027.8
20260906102021 9 321 0.0 3.2 0.00 0.00 0.00 62 1027.4
20260906101021 10 321 0.0 3.2 0.00 0.00 0.00 61 1027.4
20260906100021 10 355 0.0 3.2 0.00 0.00 0.00 61 1027.4
20260906095021 10 355 0.0 3.2 0.00 0.00 0.00 61 1027.8
20260906094021 10 355 0.0 3.2 0.00 0.00 0.00 60 1027.8
20260906093021 10 355 0.0 3.2 0.00 0.00 0.00 59 1027.8
20260906092021 10 355 0.0 3.2 0.00 0.00 0.00 59 1027.4
20260906091021 10 355 0.0 3.2 0.00 0.00 0.00 58 1027.4
20260906090021 11 355 0.0 3.2 0.00 0.00 0.00 57 1027.8
20260906085021 11 355 0.0 3.2 0.00 0.00 0.00 57 1027.8
20260906084021 11 355 0.0 3.2 0.00 0.00 0.00 56 1027.8
20260906083021 11 355 0.0 3.2 0.00 0.00 0.00 55 1027.8
20260906082021 11 355 0.0 3.2 0.00 0.00 0.00 54 1027.8
20260906081021 12 355 0.0 3.2 0.00 0.00 0.00 54 1027.8
20260906080021 12 355 0.0 3.2 0.00 0.00 0.00 53 1027.8
20260906075020 12 355 0.0 3.2 0.00 0.00 0.00 53 1027.8
20260906074020 13 355 0.0 3.2 0.00 0.00 0.00 52 1027.8
20260906073020 13 355 0.0 3.2 0.00 0.00 0.00 52 1028.1
20260906072020 13 355 0.0 3.2 0.00 0.00 0.00 53 1028.1
20260906071020 12 277 0.0 3.2 0.00 0.00 0.00 53 1027.8
20260906070020 12 276 0.0 3.2 0.00 0.00 0.00 54 1027.8
20260906065020 12 275 0.0 3.2 0.00 0.00 0.00 53 1027.8
20260906064020 12 275 0.0 3.2 0.00 0.00 0.00 52 1027.8
20260906063020 12 275 0.0 3.2 0.00 0.00 0.00 52 1027.8
20260906062020 13 275 0.0 3.2 0.00 0.00 0.00 51 1027.8
20260906061020 13 275 0.0 3.2 0.00 0.00 0.00 51 1027.8
20260906060020 13 275 0.0 0.0 0.00 0.00 0.00 50 1027.8
20260906055020 13 275 0.0 22.5 0.00 0.00 0.00 50 1027.8
20260906054020 13 275 0.0 22.5 0.00 0.00 0.00 48 1027.8
20260906053020 14 275 1.6 22.5 0.00 0.00 0.00 48 1027.4
20260906052020 14 275 0.0 22.5 0.00 0.00 0.00 47 1027.4
20260906051020 15 275 0.0 22.5 0.00 0.00 0.00 46 1027.8
20260906050020 15 275 0.0 22.5 0.00 0.00 0.00 45 1027.8
20260906045019 15 275 0.0 22.5 0.00 0.00 0.00 44 1027.8
20260906044019 16 275 0.0 22.5 0.00 0.00 0.00 44 1027.8
20260906043020 16 275 0.0 22.5 0.00 0.00 0.00 43 1027.8
20260906042019 16 275 0.0 22.5 0.00 0.00 0.00 43 1027.8
20260906040949 16 275 0.0 22.5 0.00 0.00 0.00 43 1027.8
20260906035949 16 275 0.0 22.5 0.00 0.00 0.00 41 1027.8
20260906034949 17 275 0.0 22.5 0.00 0.00 0.00 41 1027.4
20260906033949 17 242 0.0 22.5 0.00 0.00 0.00 40 1027.4
20260906032949 17 242 0.0 22.5 0.00 0.00 0.00 39 1027.1
20260906031949 18 242 0.0 22.5 0.00 0.00 0.00 37 1027.1
20260906030949 18 246 0.0 22.5 0.00 0.00 0.00 37 1026.8
20260906025949 20 241 0.0 22.5 0.00 0.00 0.00 35 1026.8
20260906024949 20 241 1.6 22.5 0.00 0.00 0.00 34 1026.4
20260906023949 21 244 1.6 22.5 0.00 0.00 0.00 33 1026.4
20260906022949 21 296 0.0 22.5 0.00 0.00 0.00 32 1026.1
20260906021949 22 238 0.0 22.5 0.00 0.00 0.00 31 1026.1
20260906020949 22 320 0.0 22.5 0.00 0.00 0.00 31 1026.1
20260906015949 23 270 0.0 22.5 0.00 0.00 0.00 31 1026.1
20260906014949 23 265 0.0 22.5 0.00 0.00 0.00 30 1026.1
20260906013919 24 250 1.6 22.5 0.00 0.00 0.00 30 1026.1
20260906012849 24 205 1.6 22.5 0.00 0.00 0.00 30 1026.1
20260906011819 25 217 1.6 22.5 0.00 0.00 0.00 29 1026.1
20260906010819 25 326 3.2 22.5 0.00 0.00 0.00 28 1025.7
20260906005819 26 287 3.2 22.5 0.00 0.00 0.00 27 1025.7
20260906004819 26 249 4.8 22.5 0.00 0.00 0.00 27 1025.7
20260906003819 27 279 3.2 22.5 0.00 0.00 0.00 25 1025.7
20260906002819 28 280 3.2 22.5 0.00 0.00 0.00 24 1025.7
20260906001819 28 185 1.6 22.5 0.00 0.00 0.00 22 1025.7
20260906000749 29 308 1.6 22.5 0.00 0.00 0.00 22 1025.7
20260905235749 29 189 1.6 22.5 0.00 0.00 0.00 22 1025.7
20260905234749 28 267 1.6 22.5 0.00 0.00 0.00 23 1025.7
20260905233749 29 289 3.2 22.5 0.00 0.00 0.00 21 1025.7
20260905232749 28 165 3.2 22.5 0.00 0.00 0.00 23 1025.7
20260905231749 28 293 8.0 22.5 0.00 0.00 0.00 22 1025.7
20260905230749 28 166 8.0 22.5 0.00 0.00 0.00 24 1025.7